Regional Weather Roundup
Issued by NWS

Home | Current Version | Previous Version | Graphics & Text | Print | Product List | Glossary On
Versions: 1 2 3 4 5 6 7 8 9 10 11 12 13 14 15 16 17 18 19 20 21 22 23 24 25 26 27 28 29 30 31 32 33 34 35 36 37 38 39 40 41 42 43 44 45 46 47 48 49 50
000
ASUS45 KABQ 310210
RWRNM
WEATHER ROUNDUP FOR NEW MEXICO
NATIONAL WEATHER SERVICE ALBUQUERQUE NM
800 PM MDT WED JUL 30 2014

NOTE: "FAIR" MEANS FEW OR NO CLOUDS BELOW 12,000 FEET AGL WITH NO
       SIGNIFICANT WEATHER OR OBSTRUCTIONS TO VISION.

      THIS PRODUCT IS RELEASED AS TWO VERSIONS.  ONE VERSION NEAR
      THE TOP OF THE HOUR CONTAINING PRELIMINARY DATA FROM ALBUQUERQUE
      AND OTHER STATIONS.  A FINAL VERSION WITH ADDITIONAL DATA IS
      ISSUED ABOUT 10 MINUTES AFTER THE HOUR.

NMZ501-503-504-510>518-310300-
NORTHWEST PLATEAU/NORTHCENTRAL MOUNTAINS

CITY           SKY/WX    TMP DP  RH WIND       PRES   REMARKS
FARMINGTON     CLEAR     86  41  20 W14       30.09S
LOS ALAMOS     MOCLDY    70  54  56 S10G16    30.28R
SANTA FE       MOCLDY    70  57  63 SE18      30.21S
TAOS           MOCLDY    64  52  63 E18G26    30.28F
ANGEL FIRE     CLOUDY    59  53  80 E5        30.44S

$$
NMZ402-403-502-505>509-310300-
WESTCENTRAL MOUNTAINS/SOUTHWEST MOUNTAINS

CITY           SKY/WX    TMP DP  RH WIND       PRES   REMARKS
GALLUP         PTCLDY    84  42  22 NW10      30.19S
SILVER CITY    PTCLDY    88  43  20 W12       30.15R

$$
NMZ407-409-411-412-310300-
SOUTHERN DESERTS

CITY           SKY/WX    TMP DP  RH WIND       PRES   REMARKS
LORDSBURG      FAIR      86  52  30 SW18G26   30.05R
DEMING         TSTM      85  55  35 N15G26    30.10R
LAS CRUCES     CLOUDY    88  49  26 SW16      30.06R
HOLLOMAN AFB   PTCLDY    91  52  25 NE2       29.99R
ALAMOGORDO     PTCLDY    88  54  31 S6        30.01R
T OR C         CLOUDY    89  56  32 CALM      30.06R

$$
NMZ519>523-310300-
CENTRAL VALLEYS/CENTRAL HIGHLANDS

CITY           SKY/WX    TMP DP  RH WIND       PRES   REMARKS
ALBUQUERQUE    MOCLDY    81  61  50 E20       30.11S
DOUBLE EAGLE   MOCLDY    84  52  32 NW6       30.16S
CLINES CORNERS   N/A     63  57  81 E25G31    30.32R
BELEN          FAIR      84  62  47 CALM      30.10S
SOCORRO        FAIR      89  47  23 CALM      30.06S

$$
NMZ524>526-539-540-310300-
SOUTHCENTRAL MOUNTAINS

CITY           SKY/WX    TMP DP  RH WIND       PRES   REMARKS
RUIDOSO        PTCLDY    68  59  73 SE9G16    30.33R

$$
NMZ527>531-310300-
NORTHEAST HIGHLANDS/NORTHEAST PLAINS

CITY           SKY/WX    TMP DP  RH WIND       PRES   REMARKS
LAS VEGAS      LGT RAIN  59  57  93 E13       30.35F
RATON          CLOUDY    62  54  74 NE12      30.32S
CLAYTON        CLOUDY    63  56  78 NE15      30.29R

$$
NMZ532>537-310300-
EASTCENTRAL PLAINS

CITY           SKY/WX    TMP DP  RH WIND       PRES   REMARKS
TUCUMCARI      CLOUDY    70  57  63 NE18G24   30.20R
CANNON AFB     MOCLDY    69  59  71 NE21      30.19R
CLOVIS AIRPORT NOT AVBL

$$
NMZ028-029-538-310300-
SOUTHEAST PLAINS

CITY           SKY/WX    TMP DP  RH WIND       PRES   REMARKS
ROSWELL        CLOUDY    83  65  54 NE9       30.06R
ARTESIA        CLOUDY    88  61  40 NE17      30.04R
CARLSBAD       CLOUDY    89  59  36 E13       30.01R
HOBBS          CLOUDY    84  63  48 NE18G24   30.07R


$$



USA.gov is the U.S. government's official web portal to all federal, state and local government web resources and services.